Weather History for KBXA - September, 2012

Change the Weather History Date:

Sunday, September 9, 2012

  Actual Average Record
Temperature  
Mean Temperature 71 °F -  
Max Temperature 82 °F 89 °F 94 °F (2014)
Min Temperature 60 °F 69 °F 69 °F (2013)
Cooling Degree Days 6    
Growing Degree Days 21 (Base 50)    
Moisture  
Dew Point 60 °F    
Average Humidity 76    
Maximum Humidity 100    
Minimum Humidity 34    
Precipitation  
Precipitation 0.00 in - - ()
Sea Level Pressure  
Sea Level Pressure 30.02 in    
Wind  
Wind Speed 4 mph ()    
Max Wind Speed 12 mph    
Max Gust Speed 16 mph    
Visibility 10.0 miles    
Events      
Averages and records for this station are not official NWS values.
T = Trace of Precipitation, MM = Missing Value Source: Averaged Metar Reports

Daily Weather History Graph

Daily Weather History Graph

Search for Another Location

Airport or City:

Trip Planner

Search our weather history database for the weather conditions in past years. The results will help you decide how hot, cold, wet, or windy it might be!

Date:

Astronomy

Sep. 09, 2012 Rise Set
Actual Time 6:40 AM CDT 7:12 PM CDT
Civil Twilight 6:16 AM CDT 7:36 PM CDT
Nautical Twilight 5:47 AM CDT 8:04 PM CDT
Astronomical Twilight 5:18 AM CDT 8:33 PM CDT
Moon 12:27 AM CDT (9/9) 2:40 PM CDT (9/9)
Length of Visible Light 13h 19m
Length of Day
12h 31m
Last Quarter, 39% of the Moon is Illuminated
Sep 9
Last Quarter
Sep 15
New
Sep 22
First Quarter
Sep 29
Full
Oct 8
Last Quarter

Hourly Weather History & Observations

Time (CDT) Temp. Heat Index Dew Point Humidity Pressure Visibility Wind Dir Wind Speed Gust Speed Precip Events Conditions
12:15 AM 69.3 °F - 69.3 °F 100% 29.97 in 10.0 mi North 3.5 mph - N/A   Clear
12:35 AM 68.9 °F - 68.9 °F 100% 29.97 in 10.0 mi North 3.5 mph - N/A   Clear
12:55 AM 68.5 °F - 68.5 °F 100% 29.96 in 10.0 mi North 4.6 mph - N/A   Clear
1:15 AM 68.4 °F - 68.4 °F 100% 29.96 in 10.0 mi North 4.6 mph - N/A   Clear
1:35 AM 68.0 °F - 68.0 °F 100% 29.96 in 10.0 mi North 4.6 mph - N/A   Clear
1:55 AM 67.6 °F - 67.6 °F 100% 29.95 in 10.0 mi North 5.8 mph - N/A   Clear
2:15 AM 67.3 °F - 67.3 °F 100% 29.96 in 10.0 mi North 5.8 mph - N/A   Clear
2:35 AM 66.9 °F - 66.9 °F 100% 29.96 in 10.0 mi North 4.6 mph - N/A   Clear
2:55 AM 66.6 °F - 66.6 °F 100% 29.97 in 10.0 mi North 3.5 mph - N/A   Clear
3:15 AM 66.0 °F - 66.0 °F 100% 29.97 in 10.0 mi North 3.5 mph - N/A   Clear
3:35 AM 65.3 °F - 65.3 °F 100% 29.98 in 10.0 mi North 3.5 mph - N/A   Clear
3:55 AM 64.6 °F - 64.6 °F 100% 29.98 in 10.0 mi North 3.5 mph - N/A   Clear
4:15 AM 64.0 °F - 64.0 °F 100% 29.98 in 10.0 mi North 3.5 mph - N/A   Clear
4:35 AM 63.5 °F - 63.5 °F 100% 29.99 in 10.0 mi Calm Calm - N/A   Clear
4:55 AM 63.0 °F - 63.0 °F 100% 30.00 in 10.0 mi Calm Calm - N/A   Clear
5:15 AM 62.6 °F - 62.6 °F 100% 30.00 in 10.0 mi North 3.5 mph - N/A   Clear
5:35 AM 62.1 °F - 62.1 °F 100% 30.01 in 10.0 mi North 4.6 mph - N/A   Clear
5:55 AM 61.9 °F - 61.9 °F 100% 30.01 in 10.0 mi North 4.6 mph - N/A   Clear
6:15 AM 61.7 °F - 61.7 °F 100% 30.02 in 10.0 mi Calm Calm - N/A   Clear
6:35 AM 61.0 °F - 61.0 °F 100% 30.03 in 10.0 mi North 3.5 mph - N/A   Clear
6:55 AM 60.8 °F - 60.8 °F 100% 30.03 in 10.0 mi North 4.6 mph - N/A   Clear
7:15 AM 61.2 °F - 61.2 °F 100% 30.03 in 10.0 mi North 4.6 mph - N/A   Clear
7:35 AM 62.1 °F - 62.1 °F 100% 30.04 in 10.0 mi North 3.5 mph - N/A   Clear
8:15 AM 65.1 °F - 64.8 °F 99% 30.05 in 10.0 mi NNE 5.8 mph - N/A   Clear
8:35 AM 67.3 °F - 61.3 °F 81% 30.06 in 10.0 mi NNE 4.6 mph - N/A   Clear
9:35 AM 72.3 °F - 59.0 °F 63% 30.06 in 10.0 mi NNE 3.5 mph - N/A   Clear
9:55 AM 73.2 °F - 56.1 °F 55% 30.07 in 10.0 mi NNE 4.6 mph - N/A   Clear
10:15 AM 74.5 °F - 55.9 °F 52% 30.07 in 10.0 mi NE 8.1 mph - N/A   Clear
10:55 AM 75.6 °F - 54.9 °F 48% 30.07 in 10.0 mi NNE 10.4 mph - N/A   Clear
11:15 AM 76.8 °F - 55.8 °F 48% 30.06 in 10.0 mi NNE 8.1 mph - N/A   Clear
11:35 AM 77.4 °F - 54.1 °F 44% 30.06 in 10.0 mi NNE 5.8 mph - N/A   Clear
11:55 AM 77.9 °F - 54.5 °F 44% 30.06 in 10.0 mi NNE 5.8 mph - N/A   Clear
12:15 PM 78.6 °F - 52.7 °F 40% 30.05 in 10.0 mi North 11.5 mph 16.1 mph N/A   Clear
12:35 PM 78.3 °F - 52.2 °F 40% 30.05 in 10.0 mi NNE 11.5 mph - N/A   Clear
12:55 PM 78.4 °F - 52.3 °F 40% 30.05 in 10.0 mi NNE 6.9 mph - N/A   Clear
1:15 PM 78.6 °F - 52.5 °F 40% 30.04 in 10.0 mi NE 6.9 mph 10.4 mph N/A   Clear
1:35 PM 79.5 °F - 53.8 °F 41% 30.03 in 10.0 mi North 8.1 mph - N/A   Unknown
1:55 PM 80.4 °F - 52.2 °F 37% 30.03 in 10.0 mi North 9.2 mph - N/A   Unknown
2:15 PM 80.2 °F - 52.7 °F 38% 30.02 in 10.0 mi NNE 10.4 mph - N/A   Unknown
2:55 PM 81.0 °F - 52.5 °F 37% 30.01 in 10.0 mi NNE 6.9 mph - N/A   Clear
3:15 PM 81.5 °F 80.8 °F 53.4 °F 38% 30.01 in 10.0 mi ENE 6.9 mph - N/A   Clear
3:55 PM 82.0 °F - 52.5 °F 36% 30.00 in 10.0 mi North 4.6 mph - N/A   Clear
4:15 PM 81.9 °F - 50.7 °F 34% 30.00 in 10.0 mi North 5.8 mph - N/A   Clear
4:35 PM 82.2 °F - 52.3 °F 35% 30.00 in 10.0 mi NNE 9.2 mph - N/A   Clear
4:55 PM 81.7 °F 80.9 °F 53.1 °F 37% 30.00 in 10.0 mi North 6.9 mph - N/A   Clear
5:15 PM 81.9 °F - 51.4 °F 35% 30.00 in 10.0 mi NE 5.8 mph - N/A   Clear
5:55 PM 79.5 °F - 53.6 °F 41% 30.00 in 10.0 mi North 5.8 mph - N/A   Clear
6:15 PM 78.8 °F - 56.5 °F 46% 30.00 in 10.0 mi NNE 5.8 mph - N/A   Clear
6:35 PM 76.5 °F - 59.9 °F 56% 30.00 in 10.0 mi Calm Calm - N/A   Clear
6:55 PM 74.8 °F - 60.6 °F 61% 30.01 in 10.0 mi Calm Calm - N/A   Clear
7:15 PM 71.4 °F - 63.5 °F 76% 30.01 in 10.0 mi Calm Calm - N/A   Clear
7:35 PM 70.2 °F - 64.6 °F 82% 30.01 in 10.0 mi Calm Calm - N/A   Clear
7:55 PM 68.5 °F - 64.9 °F 88% 30.01 in 10.0 mi Calm Calm - N/A   Clear
8:15 PM 66.9 °F - 66.9 °F 100% 30.02 in 10.0 mi North 4.6 mph - N/A   Clear
8:35 PM 66.7 °F - 62.1 °F 85% 30.03 in 10.0 mi North 3.5 mph - N/A   Clear
8:55 PM 66.2 °F - 61.0 °F 83% 30.04 in 10.0 mi North 3.5 mph - N/A   Clear
9:15 PM 65.8 °F - 60.8 °F 84% 30.04 in 10.0 mi North 3.5 mph - N/A   Clear
9:35 PM 64.6 °F - 60.6 °F 87% 30.05 in 10.0 mi North 5.8 mph - N/A   Clear
9:55 PM 64.4 °F - 60.8 °F 88% 30.05 in 10.0 mi North 4.6 mph - N/A   Clear
10:15 PM 63.7 °F - 59.9 °F 87% 30.05 in 10.0 mi North 5.8 mph - N/A   Clear
10:35 PM 63.3 °F - 61.2 °F 93% 30.05 in 10.0 mi North 5.8 mph - N/A   Clear
10:55 PM 62.8 °F - 62.8 °F 100% 30.06 in 10.0 mi North 3.5 mph - N/A   Clear
11:15 PM 62.4 °F - 62.4 °F 100% 30.06 in 10.0 mi North 3.5 mph - N/A   Clear
11:35 PM 61.3 °F - 61.3 °F 100% 30.06 in 10.0 mi North 3.5 mph - N/A   Clear
11:55 PM 61.5 °F - 61.5 °F 100% 30.07 in 10.0 mi Calm Calm - N/A   Clear